Weather in Gukovo

Russia / Rostov Oblast     47°59′00″N   39°56′36″E
temp.,
°C
wind,
m/s
gust,
m/s
humid.,
%
clouds,
%
prec.,
mm/h
press.,
hPa
HPBL,
m
7 march, sun
sun700:00−5nw5117826 0.0 1021496
03:00−5nw4108213 0.0 1023446
06:00−6w48800 0.0 1024256
09:00−3wsw68720 0.0 1024727
12:000wsw79610 0.0 10221260
15:00+1wsw811563 0.0 10201359
18:00−1sw6126527 0.0 1018739
21:00−2sw8157414 0.0 1017731
8 march, mon
mon800:00−2wsw8156611 0.0 1016732
03:00−2wsw816666 0.0 1015661
06:00−2wsw715730 0.0 1014559
09:000wsw9146747 0.0 1014885
12:00+4wsw10155169 0.0 10131621
15:00+5wsw10145279 0.0 10121886
18:00+1sw8148998 0.1 1011615
21:00+1wsw7139292 0.2 1012641
9 march, tue
tue900:000w5993100 0.2 1012643
03:00−2wnw4983100 0.6 1012593
06:00−3nw4779100 0.0 1014497
09:00−2wnw576566 0.0 1015816
12:000wnw575767 0.1 10161421
15:00+1wnw685283 0.1 10161647
18:00−2nw4864100 0.0 1017735
21:00−3nw377582 0.0 1019396
10 march, wed
wed1000:00−4nw367535 0.0 1020457
03:00−4nw466965 0.0 1021814
06:00−5nnw466693 0.0 1022774
09:00−5n456392 0.0 1023798
12:00−3n444255 0.0 10241025
15:00−2nne443870 0.0 10231152
18:00−4nne354577 0.0 1023727
21:00−4ne464940 0.0 1025564
11 march, thu
thu1100:00−5ene455038 0.0 1025747
03:00−6ene465818 0.0 1026533
06:00−7ene46570 0.0 1027518
09:00−7ene46430 0.0 1029566
12:00−4ene453329 0.0 1029889
15:00−3ne443324 0.0 10291144
18:00−4ene34380 0.0 1029924
21:00−5e45400 0.0 1030522